Location: Star Dogged Moon Observatory
(29.7756°N, 82.0783°W)
Time: 02:53:41
(UTC-04:00)

ARGOS - Visible Passes

Search period start: 24 July 2016 00:00
Search period end: 03 August 2016 00:00
Orbit: 819 x 836 km, 98.7° (Epoch: 23 July)

Date Brightness Start Highest point End Pass type
(mag) Time Alt. Az. Time Alt. Az. Time Alt. Az.
24 Jul 5.6 00:20:05 14° W 00:20:05 14° W 00:21:57 10° WNW visible
24 Jul 3.9 22:19:51 33° E 22:20:13 33° ENE 22:24:57 10° N visible
25 Jul 5.1 00:01:22 22° W 00:01:22 22° W 00:04:35 10° NW visible
25 Jul 4.5 22:01:08 21° E 22:01:50 22° ENE 22:05:50 10° NNE visible
25 Jul 4.5 23:42:39 33° WNW 23:42:39 33° WNW 23:46:40 10° NNW visible
26 Jul 4.9 21:42:25 13° E 21:43:30 14° ENE 21:46:14 10° NE visible
26 Jul 3.8 23:23:56 51° WNW 23:23:56 51° WNW 23:28:28 10° NNW visible
27 Jul 3.2 23:05:13 73° NNW 23:05:13 73° NNW 23:10:02 10° NNW visible
28 Jul 3.3 22:46:31 60° NE 22:46:31 60° NE 22:51:27 10° N visible
29 Jul 5.8 00:28:02 11° WNW 00:28:02 11° WNW 00:28:33 10° WNW visible
29 Jul 3.7 22:27:48 39° ENE 22:27:48 39° ENE 22:32:40 10° N visible
30 Jul 5.4 00:09:20 18° WNW 00:09:20 18° WNW 00:11:44 10° NW visible
30 Jul 4.3 22:09:06 26° ENE 22:09:19 26° ENE 22:13:39 10° NNE visible
30 Jul 4.8 23:50:37 27° WNW 23:50:37 27° WNW 23:53:59 10° NW visible
31 Jul 4.8 21:50:23 17° ENE 21:50:58 17° ENE 21:54:18 10° NNE visible
31 Jul 4.2 23:31:54 40° WNW 23:31:54 40° WNW 23:35:54 10° NNW visible
01 Aug 5.2 21:31:41 10° ENE 21:32:40 11° ENE 21:33:53 10° NE visible
01 Aug 3.6 23:13:12 57° NW 23:13:12 57° NW 23:17:34 10° NNW visible
02 Aug 3.4 22:54:30 61° NNE 22:54:30 61° NNE 22:59:02 10° N visible
